FLOCK 3P-54

Last updated on Wed Feb 14 2018 16:20:32 GMT+0000 (Coordinated Universal Time)

1 42014U 17008BU 18045.46057867 .00001396 00000-0 60714-4 0 9999 2 42014 97.4655 111.0675 0009132 90.7535 269.4748 15.23927061 55381
UTC large
Height (km)
Speed (km/s)
/
Latitude / Longitude
Inclination (degrees)
Orbital Period (minutes)
Azimuth
Elevation
Range (km)
Doppler Factor

Next 0 passes for location: London (51.5072 / 0.1276)

Sorry there are no passes over London.